軌道要素
Epoch 2018 July 21.0 TT = JDT 2458320.5
T 2018 July 31.84411 TT MPCW
q 1.6762285 (2000.0) P Q
n 0.08991500 Peri. 140.43355 +0.30791765 +0.91637562
a 4.9345544 Node 145.19263 -0.94623724 +0.32297298
e 0.6603080 Incl. 26.62557 -0.09910503 -0.23652522
P 10.96
From 123 observations 2018 May 19-Oct. 15, mean residual 0".5.
|